Location: Great Falls
(47.5000°N, 111.3000°W)
Time: 18:02:22
(UTC-07:00)

ISS - Visible Passes

Search period start: 05 December 2023 00:00
Search period end: 15 December 2023 00:00
Orbit: 415 x 417 km, 51.6° (Epoch: 05 December)

Date Brightness Start Highest point End Pass type
(mag) Time Alt. Az. Time Alt. Az. Time Alt. Az.
05 Dec -1.3 18:00:50 10° W 18:03:33 23° SW 18:06:15 10° SSE visible
06 Dec -1.9 17:12:02 10° WNW 17:15:08 35° SW 17:18:14 10° SSE visible
08 Dec -0.5 17:12:22 10° W 17:14:28 16° SW 17:16:34 10° S visible
